This is the latest recevied weather packets stored in our database for station/object KF0WJA. If no packets are shown the sender has not sent any weather packets the latest 10 day(s).
| Time | Temp. | Humidity | Pressure | Rain* | Wind** | Luminosity | Snow |
|---|---|---|---|---|---|---|---|
| 1787513634 | 29.44° C | 56% | 1020.1 hPa | 0 mm | - | 299 W/m² | - |
| 1787513330 | 29.44° C | 57% | 1020.3 hPa | 0 mm | - | 333 W/m² | - |
| 1787513027 | 29.44° C | 56% | 1020 hPa | 0 mm | - | 354 W/m² | - |
| 1787512723 | 29.44° C | 54% | 1020.3 hPa | 0 mm | - | 336 W/m² | - |
| 1787512418 | 30° C | 56% | 1020.3 hPa | 0 mm | - | 321 W/m² | - |
| 1787512113 | 29.44° C | 56% | 1020.5 hPa | 0 mm | - | 333 W/m² | - |
| 1787511808 | 28.89° C | 58% | 1020.3 hPa | 0 mm | - | 388 W/m² | - |
| 1787511507 | 28.89° C | 57% | 1020 hPa | 0 mm | - | 334 W/m² | - |
| 1787511202 | 28.89° C | 58% | 1019.8 hPa | 0 mm | - | 317 W/m² | - |
| 1787510902 | 28.89° C | 57% | 1020 hPa | 0 mm | - | 355 W/m² | - |
| 1787510597 | 28.89° C | 58% | 1020 hPa | 0 mm | - | 367 W/m² | - |
| 1787510292 | 29.44° C | 58% | 1020.3 hPa | 0 mm | - | 422 W/m² | - |
| 1787509988 | 29.44° C | 57% | 1020.6 hPa | 0 mm | - | 486 W/m² | - |
| 1787509689 | 28.89° C | 58% | 1020.6 hPa | 0 mm | - | 413 W/m² | - |
| 1787509385 | 28.89° C | 57% | 1020.8 hPa | 0 mm | - | 369 W/m² | - |
| 1787509080 | 29.44° C | 56% | 1020.8 hPa | 0 mm | - | 374 W/m² | - |
| 1787508776 | 29.44° C | 57% | 1021.1 hPa | 0 mm | - | 503 W/m² | - |
| 1787508471 | 28.89° C | 58% | 1021 hPa | 0 mm | - | 354 W/m² | - |
| 1787508168 | 28.89° C | 57% | 1021.3 hPa | 0 mm | - | 423 W/m² | - |
| 1787507863 | 28.89° C | 59% | 1021.3 hPa | 0 mm | - | 327 W/m² | - |
| 1787507559 | 28.89° C | 58% | 1021.6 hPa | 0 mm | - | 256 W/m² | - |
| 1787507255 | 28.33° C | 59% | 1021.7 hPa | 0 mm | - | 344 W/m² | - |
| 1787506951 | 28.89° C | 59% | 1021.6 hPa | 0 mm | - | 372 W/m² | - |
| 1787506647 | 28.33° C | 59% | 1021.8 hPa | 0 mm | - | 375 W/m² | - |
| 1787506343 | 28.89° C | 58% | 1022 hPa | 0 mm | - | 290 W/m² | - |
* Rain latest hour (hover to see other rain measurements)
** Current wind speed in m/s (hover to see current wind gust speed)